{"data":{"norad_id":43081,"epoch":"2026-05-25T02:20:17.081952Z","epoch_age_seconds":66380,"freshness":"FRESH","line1":"1 43081U 17085A   26145.09741993  .00002361  00000+0  17600-3 0  9995","line2":"2 43081  34.9962 290.7741 0005483 305.5994  54.4203 15.02569650459247","mean_motion":15.0256965,"eccentricity":0.0005483,"inclination_deg":34.9962,"raan_deg":290.7741,"arg_perigee_deg":305.5994,"mean_anomaly_deg":54.4203,"bstar":0.000176,"rev_number":45924,"period_min":95.835823650504,"perigee_km":555.17234146892,"apogee_km":562.77957954141,"semimajor_km":6937.1129605052,"source":"CELESTRAK","updated_at":"2026-05-25T13:37:55.763325Z"}}